TimePST,TemperatureF,Dew PointF,Humidity,Sea Level PressureIn,VisibilityMPH,Wind Direction,Wind SpeedMPH,Gust SpeedMPH,PrecipitationIn,Events,Conditions,WindDirDegrees,DateUTC
12:51 AM,50.0,23.0,35,30.21,10.0,WNW,11.5,-,N/A,,Clear,300,2013-02-25 08:51:00
1:51 AM,48.9,30.9,50,30.20,10.0,WNW,6.9,-,N/A,,Clear,300,2013-02-25 09:51:00
3:51 AM,53.1,12.0,20,30.18,10.0,Calm,Calm,-,N/A,,Clear,0,2013-02-25 11:51:00
4:51 AM,57.0,3.0,11,30.18,10.0,Calm,Calm,-,N/A,,Clear,0,2013-02-25 12:51:00
5:51 AM,55.9,3.0,12,30.19,10.0,Calm,Calm,-,N/A,,Clear,0,2013-02-25 13:51:00
6:51 AM,54.0,6.1,15,30.19,10.0,South,4.6,-,N/A,,Clear,180,2013-02-25 14:51:00
8:51 AM,57.0,16.0,20,30.20,10.0,SW,4.6,-,N/A,,Clear,230,2013-02-25 16:51:00
9:51 AM,57.0,28.9,34,30.20,10.0,Variable,3.5,-,N/A,,Clear,0,2013-02-25 17:51:00
10:51 AM,59.0,28.0,31,30.20,10.0,WSW,9.2,-,N/A,,Clear,240,2013-02-25 18:51:00
11:51 AM,57.9,30.9,36,30.18,10.0,WSW,9.2,-,N/A,,Clear,250,2013-02-25 19:51:00
12:51 PM,60.1,16.0,18,30.16,10.0,West,8.1,-,N/A,,Clear,270,2013-02-25 20:51:00
1:51 PM,57.9,30.0,35,30.15,10.0,West,9.2,-,N/A,,Clear,260,2013-02-25 21:51:00
2:51 PM,57.9,28.9,33,30.14,10.0,West,11.5,-,N/A,,Clear,270,2013-02-25 22:51:00
3:51 PM,57.0,23.0,27,30.12,10.0,West,12.7,-,N/A,,Clear,260,2013-02-25 23:51:00
4:51 PM,53.1,30.9,43,30.09,10.0,West,10.4,-,N/A,,Clear,260,2013-02-26 00:51:00
5:51 PM,50.0,32.0,50,30.09,10.0,WSW,8.1,-,N/A,,Clear,250,2013-02-26 01:51:00
6:51 PM,51.1,27.0,39,30.09,10.0,West,11.5,-,N/A,,Clear,260,2013-02-26 02:51:00
7:51 PM,48.0,42.1,80,30.10,10.0,WSW,9.2,-,N/A,,Clear,240,2013-02-26 03:51:00
8:51 PM,48.0,39.0,71,30.11,10.0,WSW,9.2,-,N/A,,Clear,250,2013-02-26 04:51:00
9:51 PM,46.9,41.0,80,30.11,10.0,West,9.2,-,N/A,,Clear,260,2013-02-26 05:51:00
10:25 PM,46.4,42.8,87,30.11,1.0,WSW,6.9,-,N/A,,Mist,250,2013-02-26 06:25:00
10:32 PM,46.4,44.6,93,30.10,0.2,WSW,4.6,-,N/A,Fog,Fog,240,2013-02-26 06:32:00
10:51 PM,45.0,44.1,97,30.10,0.2,West,5.8,-,N/A,Fog,Fog,260,2013-02-26 06:51:00
10:56 PM,44.6,44.6,100,30.10,1.2,WSW,5.8,-,N/A,,Mostly Cloudy,250,2013-02-26 06:56:00
10:59 PM,44.6,44.6,100,30.10,0.8,WSW,5.8,-,N/A,,Mist,250,2013-02-26 06:59:00
11:14 PM,44.6,42.8,93,30.10,2.0,NNW,4.6,-,N/A,,Partly Cloudy,340,2013-02-26 07:14:00
11:21 PM,42.8,39.2,87,30.10,10.0,NNE,3.5,-,N/A,,Partly Cloudy,20,2013-02-26 07:21:00
11:51 PM,48.0,33.1,56,30.08,10.0,Calm,Calm,-,N/A,,Clear,0,2013-02-26 07:51:00